User: anonymous   Login
Location: Unspecified
(0.0000°N, 0.0000°E)
Time: 01:50:07
(UTC+00:00)
Language:

STARLINK-34823 - Orbit

View from above orbital plane
View from above orbital plane
View from above satellite
View from above satellite

Ground track
Ground track

The orbit is defined by the following mean orbital elements,

1 65355U          26145.48119037 +.00000000 +00000-0 +35384-3 0 00004
2 65355  53.1583 171.3983 0000950  78.8215 281.2893 15.30204917    03
Epoch (UTC): 25 May 2026 11:32:54
Eccentricity: 0.0000950
inclination: 53.1583°
perigee height: 475 km
apogee height: 476 km
right ascension of ascending node: 171.3983°
argument of perigee: 78.8215°
revolutions per day: 15.30204917
mean anomaly at epoch: 281.2893°

The dashed part of the orbit path shows where the satellite is in the earth's shadow,  

DLR